Location: Buenos Aires
(34.6076°S, 58.4371°W)
Time: 12:23:38
(UTC-03:00)

Envisat - Pass Details

Date: 25 June 2021
Orbit: 764 x 766 km, 98.2° (Epoch: 03 August)

Event Time Altitude Azimuth Distance (km) Brightness Sun altitude
Rises 05:02:06 0° 29° (NNE) 3,219 6.6 -35.9°
Reaches altitude 10° 05:04:27 10° 34° (NE) 2,301 5.9 -35.5°
Enters shadow 05:07:18 31° 54° (NE) 1,324 4.6 -34.9°
